Wasilla, AK

10:55 AM AKDT on June 26, 2017 (GMT -0800)
Wasilla

Weather History for PAWS - November, 2012

Change the Weather History Date:

Thursday, November 8, 2012

  Actual Average Record
Temperature  
Mean Temperature 10 °F -  
Max Temperature 21 °F 30 °F 48 °F (1979)
Min Temperature 0 °F 14 °F -9 °F (1989)
Degree Days  
Heating Degree Days 54    
Moisture  
Dew Point 5 °F    
Average Humidity 64    
Maximum Humidity 92    
Minimum Humidity 38    
Precipitation  
Precipitation 0.00 in - - ()
Sea Level Pressure  
Sea Level Pressure 30.29 in    
Wind  
Wind Speed 3 mph (NNW)    
Max Wind Speed 13 mph    
Max Gust Speed 18 mph    
Visibility 10 miles    
Events      
Averages and records for this station are not official NWS values.
T = Trace of Precipitation, MM = Missing Value Source: NWS Daily Summary

Daily Weather History Graph

Daily Weather History Graph

Search for Another Location

Airport or City:

Trip Planner

Search our weather history database for the weather conditions in past years. The results will help you decide how hot, cold, wet, or windy it might be!

Date:

Astronomy

Nov. 08, 2012 Rise Set
Actual Time 8:49 AM AKST 4:33 PM AKST
Civil Twilight 7:58 AM AKST 5:24 PM AKST
Nautical Twilight 7:05 AM AKST 6:17 PM AKST
Astronomical Twilight 6:14 AM AKST 7:08 PM AKST
Moon 1:18 AM AKST (11/8) 2:45 PM AKST (11/8)
Length of Visible Light 9h 25m
Length of Day
7h 44m
Waning Crescent, 31% of the Moon is Illuminated
Nov 8
Waning Crescent
Nov 13
New
Nov 20
First Quarter
Nov 28
Full
Dec 6
Last Quarter

Hourly Weather History & Observations

Time (AKST) Temp. Windchill Dew Point Humidity Pressure Visibility Wind Dir Wind Speed Gust Speed Precip Events Conditions
12:16 AM -0.4 °F - -2.2 °F 92% 30.36 in 10.0 mi Calm Calm - N/A   Clear
12:36 AM 1.4 °F - -0.4 °F 92% 30.36 in 10.0 mi Calm Calm - N/A   Clear
12:56 AM 1.4 °F - -7.6 °F 66% 30.36 in 10.0 mi Calm Calm - N/A   Clear
1:16 AM 6.8 °F -0.1 °F 3.2 °F 85% 30.36 in 10.0 mi NE 3.5 mph - N/A   Clear
1:36 AM 6.8 °F -2.0 °F 3.2 °F 85% 30.36 in 10.0 mi NE 4.6 mph - N/A   Clear
2:16 AM 17.6 °F 6.4 °F -0.4 °F 45% 30.37 in 10.0 mi NE 9.2 mph - N/A   Clear
2:36 AM 17.6 °F 7.3 °F -2.2 °F 42% 30.37 in 10.0 mi NNE 8.1 mph - N/A   Clear
2:56 AM 17.6 °F 6.4 °F -2.2 °F 42% 30.37 in 10.0 mi NE 9.2 mph - N/A   Clear
3:16 AM 17.6 °F 4.3 °F -2.2 °F 42% 30.36 in 10.0 mi NE 12.7 mph - N/A   Clear
3:36 AM 17.6 °F 5.0 °F -2.2 °F 42% 30.35 in 10.0 mi ENE 11.5 mph - N/A   Clear
3:56 AM 19.4 °F 6.6 °F -2.2 °F 39% 30.35 in 10.0 mi ENE 12.7 mph 18.4 mph N/A   Clear
4:16 AM 19.4 °F 8.6 °F -2.2 °F 39% 30.34 in 10.0 mi ENE 9.2 mph - N/A   Clear
4:36 AM 17.6 °F 6.4 °F -2.2 °F 42% 30.34 in 10.0 mi ENE 9.2 mph - N/A   Clear
4:56 AM 17.6 °F 12.3 °F -2.2 °F 42% 30.34 in 10.0 mi ENE 3.5 mph - N/A   Clear
5:16 AM 17.6 °F 8.2 °F -4.0 °F 38% 30.33 in 10.0 mi NNE 6.9 mph - N/A   Clear
5:36 AM 15.8 °F 5.1 °F -2.2 °F 45% 30.33 in 10.0 mi NNE 8.1 mph - N/A   Clear
5:56 AM 15.8 °F - -2.2 °F 45% 30.33 in 10.0 mi Calm Calm - N/A   Clear
6:16 AM 14.0 °F - -2.2 °F 49% 30.33 in 10.0 mi Calm Calm - N/A   Clear
6:36 AM 14.0 °F 6.5 °F -2.2 °F 49% 30.32 in 10.0 mi NNE 4.6 mph - N/A   Clear
6:56 AM 8.6 °F - -4.0 °F 57% 30.32 in 10.0 mi Calm Calm - N/A   Clear
7:36 AM 8.6 °F - -2.2 °F 62% 30.32 in 10.0 mi Calm Calm - N/A   Clear
7:56 AM 6.8 °F - -2.2 °F 67% 30.33 in 10.0 mi Calm Calm - N/A   Clear
8:16 AM 6.8 °F -3.5 °F -2.2 °F 67% 30.32 in 10.0 mi NE 5.8 mph - N/A   Clear
8:36 AM 10.4 °F 2.2 °F -4.0 °F 52% 30.33 in 10.0 mi NE 4.6 mph - N/A   Clear
8:56 AM 15.8 °F 8.6 °F 1.4 °F 53% 30.32 in 10.0 mi NNE 4.6 mph - N/A   Clear
9:16 AM 6.8 °F - -5.8 °F 56% 30.32 in 10.0 mi Calm Calm - N/A   Clear
9:36 AM 6.8 °F - -0.4 °F 72% 30.31 in 10.0 mi Calm Calm - N/A   Clear
9:56 AM 8.6 °F - 1.4 °F 73% 30.32 in 10.0 mi Calm Calm - N/A   Partly Cloudy
10:16 AM 8.6 °F - 3.2 °F 79% 30.32 in 10.0 mi Calm Calm - N/A   Clear
10:36 AM 10.4 °F 4.0 °F 5.0 °F 79% 30.33 in 10.0 mi WSW 3.5 mph - N/A   Clear
10:56 AM 8.6 °F 2.0 °F 3.2 °F 79% 30.32 in 10.0 mi WSW 3.5 mph - N/A   Clear
11:16 AM 10.4 °F - 3.2 °F 73% 30.32 in 10.0 mi Calm Calm - N/A   Clear
11:36 AM 12.2 °F - 6.8 °F 79% 30.32 in 10.0 mi Calm Calm - N/A   Clear
11:56 AM 15.8 °F - 6.8 °F 68% 30.31 in 10.0 mi Calm Calm - N/A   Clear
12:16 PM 17.6 °F 10.7 °F 6.8 °F 63% 30.32 in 10.0 mi West 4.6 mph - N/A   Clear
12:36 PM 17.6 °F 12.3 °F 6.8 °F 63% 30.31 in 10.0 mi SW 3.5 mph - N/A   Clear
12:56 PM 17.6 °F 12.3 °F 8.6 °F 68% 30.30 in 10.0 mi WNW 3.5 mph - N/A   Clear
1:16 PM 17.6 °F 12.3 °F 8.6 °F 68% 30.30 in 10.0 mi WSW 3.5 mph - N/A   Clear
1:36 PM 17.6 °F - 8.6 °F 68% 30.29 in 10.0 mi Calm Calm - N/A   Clear
1:56 PM 17.6 °F 12.3 °F 8.6 °F 68% 30.29 in 10.0 mi West 3.5 mph - N/A   Clear
2:16 PM 17.6 °F 12.3 °F 8.6 °F 68% 30.30 in 10.0 mi West 3.5 mph - N/A   Clear
2:36 PM 17.6 °F 12.3 °F 8.6 °F 68% 30.28 in 10.0 mi WNW 3.5 mph - N/A   Clear
2:56 PM 17.6 °F 12.3 °F 10.4 °F 73% 30.28 in 10.0 mi West 3.5 mph - N/A   Partly Cloudy
3:16 PM 17.6 °F 12.3 °F 10.4 °F 73% 30.28 in 10.0 mi West 3.5 mph - N/A   Clear
3:36 PM 17.6 °F 8.2 °F 10.4 °F 73% 30.27 in 10.0 mi West 6.9 mph - N/A   Clear
3:56 PM 17.6 °F 9.3 °F 10.4 °F 73% 30.27 in 10.0 mi NW 5.8 mph - N/A   Clear
4:16 PM 17.6 °F 10.7 °F 10.4 °F 73% 30.26 in 10.0 mi West 4.6 mph - N/A   Clear
4:36 PM 17.6 °F 12.3 °F 10.4 °F 73% 30.26 in 10.0 mi West 3.5 mph - N/A   Partly Cloudy
4:56 PM 17.6 °F 12.3 °F 10.4 °F 73% 30.25 in 10.0 mi West 3.5 mph - N/A   Mostly Cloudy
5:16 PM 17.6 °F - 10.4 °F 73% 30.25 in 10.0 mi Calm Calm - N/A   Overcast
5:36 PM 17.6 °F 12.3 °F 10.4 °F 73% 30.25 in 10.0 mi WNW 3.5 mph - N/A   Overcast
5:56 PM 17.6 °F 12.3 °F 10.4 °F 73% 30.24 in 10.0 mi West 3.5 mph - N/A   Overcast
6:16 PM 19.4 °F - 10.4 °F 68% 30.24 in 10.0 mi Calm Calm - N/A   Overcast
6:36 PM 17.6 °F 10.7 °F 8.6 °F 68% 30.24 in 10.0 mi West 4.6 mph - N/A   Mostly Cloudy
6:56 PM 19.4 °F 14.3 °F 8.6 °F 63% 30.24 in 10.0 mi West 3.5 mph - N/A   Overcast
7:16 PM 19.4 °F - 8.6 °F 63% 30.23 in 10.0 mi Calm Calm - N/A   Overcast
7:36 PM 19.4 °F - 8.6 °F 63% 30.22 in 10.0 mi Calm Calm - N/A   Mostly Cloudy
7:56 PM 19.4 °F - 10.4 °F 68% 30.22 in 10.0 mi Calm Calm - N/A   Mostly Cloudy
8:16 PM 19.4 °F - 10.4 °F 68% 30.22 in 10.0 mi Calm Calm - N/A   Overcast
8:36 PM 19.4 °F - 10.4 °F 68% 30.22 in 10.0 mi Calm Calm - N/A   Overcast
8:56 PM 19.4 °F - 10.4 °F 68% 30.21 in 10.0 mi Calm Calm - N/A   Overcast
9:16 PM 19.4 °F - 10.4 °F 68% 30.21 in 10.0 mi Calm Calm - N/A   Overcast
9:36 PM 19.4 °F - 8.6 °F 63% 30.20 in 10.0 mi Calm Calm - N/A   Overcast
9:56 PM 21.2 °F - 10.4 °F 63% 30.20 in 10.0 mi Calm Calm - N/A   Overcast
10:16 PM 21.2 °F - 10.4 °F 63% 30.20 in 10.0 mi Calm Calm - N/A   Overcast
10:36 PM 19.4 °F - 10.4 °F 68% 30.20 in 10.0 mi Calm Calm - N/A   Overcast
10:56 PM 19.4 °F - 8.6 °F 63% 30.20 in 10.0 mi Calm Calm - N/A   Overcast
11:16 PM 21.2 °F - 10.4 °F 63% 30.19 in 10.0 mi Calm Calm - N/A   Overcast
11:36 PM 21.2 °F - 10.4 °F 63% 30.18 in 10.0 mi Calm Calm - N/A   Overcast
11:56 PM 21.2 °F - 10.4 °F 63% 30.17 in 10.0 mi Calm Calm - N/A   Overcast